Precipitable_Water
0.31 0.26 0.27 0.24 0.20 0.21 0.20 0.20 0.16 0.15 0.13 0.12 0.12 0.12 0.13 0.14 0.14 0.14 0.14 0.14 0.16 0.19 0.28 0.34 0.37 0.44 0.46 0.47 0.48 0.49 0.48 0.53 0.65 0.80 0.93 1.07 1.09 1.12 1.13 1.15 1.20 1.21 1.17 1.05
0.34 0.32 0.34 0.30 0.26 0.23 0.22 0.23 0.22 0.21 0.18 0.18 0.17 0.16 0.17 0.16 0.16 0.15 0.14 0.16 0.18 0.19 0.27 0.29 0.33 0.37 0.41 0.42 0.44 0.46 0.45 0.46 0.53 0.67 0.81 0.91 1.00 1.05 1.09 1.08 1.12 1.17 1.17 1.10
0.31 0.35 0.35 0.29 0.30 0.29 0.25 0.24 0.23 0.18 0.20 0.21 0.18 0.18 0.20 0.21 0.19 0.18 0.16 0.16 0.19 0.22 0.26 0.29 0.32 0.35 0.36 0.40 0.44 0.44 0.43 0.45 0.46 0.50 0.61 0.78 0.92 0.98 1.01 1.05 1.09 1.09 1.11 1.10
0.33 0.35 0.28 0.33 0.41 0.35 0.31 0.26 0.27 0.25 0.23 0.25 0.24 0.22 0.23 0.24 0.25 0.24 0.23 0.21 0.18 0.20 0.25 0.30 0.34 0.35 0.37 0.40 0.41 0.41 0.41 0.41 0.43 0.44 0.49 0.61 0.69 0.78 0.87 0.94 0.99 1.02 1.04 1.10
0.34 0.31 0.34 0.41 0.31 0.36 0.31 0.33 0.28 0.27 0.29 0.29 0.30 0.28 0.28 0.26 0.25 0.25 0.26 0.26 0.26 0.24 0.24 0.30 0.34 0.36 0.35 0.36 0.39 0.40 0.40 0.41 0.43 0.43 0.49 0.53 0.55 0.55 0.61 0.72 0.80 0.93 0.96 1.00
0.37 0.31 0.26 0.38 0.39 0.42 0.38 0.30 0.30 0.33 0.39 0.43 0.45 0.36 0.39 0.33 0.30 0.27 0.26 0.29 0.29 0.30 0.29 0.28 0.32 0.36 0.34 0.33 0.35 0.36 0.39 0.42 0.45 0.48 0.49 0.48 0.48 0.49 0.50 0.52 0.52 0.58 0.64 0.76
0.36 0.32 0.33 0.45 0.43 0.40 0.28 0.27 0.37 0.50 0.55 0.52 0.49 0.54 0.50 0.45 0.41 0.34 0.29 0.27 0.30 0.34 0.33 0.31 0.33 0.34 0.32 0.32 0.30 0.37 0.42 0.44 0.45 0.45 0.45 0.46 0.45 0.45 0.44 0.44 0.44 0.43 0.43 0.45
0.37 0.32 0.29 0.44 0.40 0.33 0.34 0.41 0.48 0.52 0.57 0.53 0.58 0.61 0.56 0.53 0.48 0.42 0.31 0.28 0.30 0.32 0.34 0.38 0.39 0.37 0.31 0.29 0.34 0.38 0.40 0.41 0.43 0.45 0.46 0.45 0.44 0.44 0.44 0.42 0.39 0.38 0.37 0.36
0.37 0.36 0.47 0.48 0.46 0.49 0.49 0.49 0.53 0.53 0.54 0.61 0.59 0.61 0.67 0.65 0.55 0.48 0.41 0.31 0.31 0.33 0.35 0.38 0.42 0.42 0.37 0.35 0.35 0.36 0.38 0.39 0.42 0.44 0.45 0.45 0.44 0.43 0.41 0.41 0.38 0.36 0.35 0.33
0.38 0.42 0.45 0.49 0.52 0.52 0.51 0.51 0.53 0.53 0.53 0.58 0.59 0.60 0.64 0.65 0.66 0.59 0.54 0.47 0.37 0.34 0.34 0.34 0.40 0.43 0.42 0.43 0.43 0.41 0.35 0.36 0.40 0.41 0.44 0.45 0.45 0.44 0.42 0.39 0.37 0.36 0.34 0.32
0.38 0.43 0.42 0.44 0.45 0.45 0.44 0.48 0.49 0.53 0.56 0.57 0.57 0.64 0.61 0.63 0.65 0.71 0.67 0.59 0.49 0.40 0.36 0.34 0.35 0.39 0.44 0.45 0.45 0.43 0.42 0.39 0.37 0.39 0.40 0.41 0.45 0.46 0.45 0.45 0.44 0.39 0.37 0.35
0.27 0.33 0.36 0.32 0.39 0.43 0.41 0.41 0.43 0.46 0.51 0.55 0.54 0.53 0.57 0.61 0.64 0.72 0.73 0.66 0.59 0.50 0.44 0.40 0.38 0.37 0.41 0.45 0.46 0.43 0.41 0.42 0.38 0.38 0.39 0.40 0.39 0.40 0.46 0.46 0.46 0.46 0.44 0.41
0.32 0.30 0.37 0.40 0.41 0.42 0.38 0.38 0.38 0.41 0.45 0.47 0.52 0.55 0.57 0.59 0.63 0.65 0.73 0.71 0.64 0.57 0.52 0.48 0.41 0.38 0.39 0.42 0.45 0.44 0.42 0.42 0.42 0.40 0.38 0.38 0.39 0.38 0.36 0.41 0.43 0.42 0.40 0.37
0.41 0.40 0.34 0.35 0.31 0.37 0.38 0.38 0.40 0.41 0.44 0.47 0.51 0.55 0.56 0.57 0.60 0.61 0.62 0.72 0.74 0.63 0.59 0.56 0.51 0.47 0.42 0.42 0.44 0.44 0.45 0.45 0.43 0.41 0.39 0.39 0.39 0.39 0.40 0.38 0.37 0.38 0.40 0.38
0.39 0.40 0.35 0.34 0.35 0.34 0.36 0.38 0.37 0.38 0.41 0.43 0.49 0.51 0.54 0.54 0.55 0.57 0.60 0.63 0.78 0.80 0.63 0.58 0.56 0.54 0.53 0.48 0.46 0.46 0.46 0.47 0.47 0.45 0.42 0.41 0.42 0.42 0.41 0.41 0.40 0.38 0.38 0.39
0.31 0.31 0.34 0.34 0.34 0.35 0.35 0.34 0.35 0.36 0.40 0.42 0.44 0.47 0.51 0.53 0.54 0.55 0.58 0.60 0.70 0.78 0.76 0.60 0.58 0.59 0.59 0.56 0.53 0.51 0.49 0.50 0.50 0.48 0.46 0.43 0.43 0.43 0.42 0.42 0.41 0.40 0.38 0.38
0.30 0.31 0.36 0.38 0.39 0.41 0.40 0.41 0.43 0.43 0.41 0.40 0.41 0.46 0.49 0.50 0.52 0.54 0.56 0.57 0.62 0.77 0.80 0.69 0.59 0.61 0.62 0.60 0.60 0.58 0.56 0.54 0.54 0.52 0.49 0.46 0.45 0.46 0.46 0.46 0.44 0.42 0.41 0.41
0.43 0.45 0.46 0.48 0.46 0.48 0.47 0.48 0.46 0.45 0.44 0.42 0.43 0.44 0.45 0.47 0.49 0.52 0.52 0.53 0.56 0.60 0.65 0.70 0.69 0.65 0.65 0.66 0.65 0.62 0.59 0.56 0.55 0.53 0.52 0.49 0.48 0.49 0.49 0.48 0.46 0.44 0.44 0.44
0.42 0.41 0.37 0.34 0.42 0.51 0.50 0.51 0.51 0.50 0.49 0.46 0.43 0.44 0.46 0.47 0.47 0.48 0.50 0.58 0.60 0.54 0.58 0.65 0.63 0.63 0.63 0.65 0.64 0.61 0.58 0.56 0.55 0.55 0.53 0.51 0.49 0.50 0.50 0.48 0.48 0.47 0.45 0.44
0.32 0.32 0.34 0.34 0.36 0.47 0.47 0.54 0.55 0.52 0.52 0.50 0.43 0.45 0.47 0.46 0.47 0.47 0.52 0.55 0.57 0.57 0.59 0.59 0.58 0.57 0.58 0.59 0.59 0.57 0.56 0.56 0.55 0.54 0.53 0.52 0.51 0.50 0.50 0.49 0.48 0.46 0.46 0.44
0.27 0.29 0.28 0.32 0.31 0.36 0.45 0.49 0.54 0.52 0.55 0.55 0.47 0.46 0.48 0.49 0.50 0.51 0.49 0.49 0.54 0.56 0.57 0.57 0.58 0.57 0.56 0.57 0.59 0.58 0.57 0.55 0.54 0.53 0.53 0.51 0.50 0.50 0.50 0.50 0.49 0.47 0.45 0.40
0.22 0.23 0.25 0.31 0.31 0.29 0.39 0.45 0.49 0.55 0.51 0.55 0.55 0.51 0.48 0.48 0.50 0.53 0.57 0.57 0.61 0.62 0.60 0.59 0.58 0.57 0.59 0.60 0.59 0.59 0.59 0.58 0.58 0.57 0.55 0.54 0.53 0.52 0.51 0.51 0.48 0.45 0.40 0.36
0.20 0.20 0.21 0.24 0.30 0.31 0.31 0.36 0.41 0.51 0.54 0.51 0.47 0.51 0.52 0.54 0.56 0.55 0.54 0.62 0.65 0.66 0.66 0.64 0.63 0.64 0.63 0.60 0.59 0.58 0.57 0.57 0.57 0.56 0.56 0.56 0.55 0.53 0.50 0.47 0.43 0.38 0.34 0.32
0.18 0.18 0.18 0.20 0.24 0.28 0.27 0.28 0.36 0.40 0.49 0.56 0.56 0.50 0.50 0.52 0.54 0.57 0.59 0.59 0.59 0.59 0.60 0.62 0.63 0.60 0.58 0.59 0.59 0.60 0.60 0.58 0.57 0.56 0.55 0.54 0.52 0.49 0.46 0.42 0.37 0.35 0.33 0.31
0.18 0.17 0.17 0.19 0.19 0.23 0.28 0.28 0.28 0.35 0.39 0.45 0.52 0.56 0.52 0.53 0.52 0.54 0.57 0.55 0.55 0.54 0.54 0.57 0.56 0.57 0.59 0.59 0.59 0.58 0.58 0.58 0.57 0.56 0.54 0.51 0.49 0.45 0.40 0.36 0.33 0.30 0.29 0.29
0.18 0.17 0.17 0.17 0.19 0.20 0.26 0.28 0.25 0.29 0.37 0.39 0.46 0.51 0.51 0.54 0.55 0.55 0.54 0.53 0.52 0.50 0.48 0.49 0.50 0.51 0.52 0.54 0.55 0.55 0.54 0.54 0.52 0.51 0.49 0.44 0.39 0.35 0.32 0.30 0.29 0.27 0.26 0.26
0.22 0.22 0.20 0.18 0.18 0.21 0.24 0.28 0.26 0.28 0.36 0.37 0.41 0.49 0.52 0.53 0.53 0.52 0.51 0.48 0.48 0.46 0.45 0.46 0.46 0.47 0.48 0.48 0.48 0.47 0.45 0.44 0.43 0.39 0.34 0.30 0.27 0.24 0.22 0.22 0.23 0.25 0.26 0.24
Wind_Speed
19 21 22 23 20 14 13 13 11 12 12 18 16 15 15 15 14 14 14 13 12 12 17 21 21 19 17 17 17 17 16 17 18 17 16 15 14 13 12 12 12 13 12 14
19 17 15 19 19 17 18 18 19 22 24 22 20 16 15 16 15 16 15 13 12 11 11 12 15 17 17 15 14 14 15 16 17 16 13 13 14 11 14 12 9 7 6 8
17 19 23 16 13 13 12 13 15 14 17 15 15 14 15 17 16 17 17 16 14 13 12 11 10 9 10 12 12 13 14 15 16 15 11 10 11 10 11 10 12 12 8 1
21 21 16 15 17 15 15 17 18 18 18 16 17 17 20 19 18 19 18 18 18 16 15 14 12 12 12 12 12 13 14 15 16 15 10 7 7 8 9 8 9 7 7 6
20 20 26 22 13 13 14 20 16 17 17 19 19 20 22 19 18 20 19 19 18 18 17 16 15 14 14 14 13 13 13 14 13 10 6 5 6 6 7 6 6 6 7 6
20 22 22 18 19 19 20 21 15 15 20 22 20 22 23 22 21 22 21 20 20 19 18 18 17 17 16 15 15 14 13 12 10 8 6 6 6 6 6 5 5 4 4 4
26 26 29 27 24 20 18 18 18 25 29 26 25 26 27 27 26 25 25 24 22 21 20 19 18 18 18 18 17 16 14 13 11 9 8 8 7 6 5 4 3 3 3 3
25 27 30 21 19 20 23 28 33 33 34 33 33 32 30 31 30 29 28 27 25 23 22 21 19 18 19 19 18 17 16 15 14 12 10 8 7 6 4 4 3 3 3 3
33 34 33 31 34 38 40 40 41 40 38 37 36 35 34 32 31 29 27 28 26 25 24 23 23 21 20 20 18 18 17 17 16 15 14 12 11 9 8 7 6 6 6 6
39 38 44 45 43 44 47 49 46 44 43 42 42 37 36 35 33 31 31 30 29 28 27 27 26 25 24 21 20 18 18 17 17 16 16 16 15 14 13 12 12 11 11 10
51 48 51 50 48 47 48 48 47 46 45 44 41 39 39 38 36 34 33 33 32 32 31 30 29 28 27 25 22 20 19 18 18 17 17 17 17 17 17 16 16 15 15 15
50 50 48 54 49 49 52 53 52 50 48 46 45 44 43 42 39 37 37 35 34 33 33 32 31 30 29 28 26 24 22 20 19 18 17 16 16 16 16 17 17 17 17 17
50 50 49 51 51 50 51 51 50 50 48 47 47 46 45 44 42 40 39 37 36 36 34 33 32 32 31 31 30 28 25 24 22 21 20 19 18 17 16 15 15 15 16 16
45 47 51 50 50 49 49 50 49 48 47 46 46 44 44 43 42 40 39 39 38 36 36 35 34 33 32 32 32 31 29 27 25 24 23 22 21 20 19 19 18 18 18 18
42 43 46 47 46 47 46 45 45 44 43 42 41 42 41 41 40 39 38 37 38 39 37 36 35 34 32 32 33 32 30 29 27 26 26 25 24 23 22 21 21 21 20 21
44 42 41 40 41 42 42 41 41 41 41 40 40 40 39 39 39 37 36 35 35 36 37 37 37 36 35 34 33 33 32 31 30 28 27 26 26 25 24 23 23 22 23 23
35 35 36 36 35 35 35 35 36 37 38 39 39 39 38 36 35 34 33 33 32 32 33 35 36 35 35 35 34 33 33 32 31 29 28 28 27 26 26 25 25 25 25 25
28 28 28 30 31 31 32 32 32 33 33 34 33 33 32 32 32 30 30 29 29 29 29 30 34 34 34 33 33 32 31 31 30 29 28 28 28 27 27 26 26 26 25 25
24 25 27 28 28 27 29 28 29 29 29 29 28 27 26 26 26 27 26 26 26 25 25 25 26 28 29 31 31 30 29 28 28 28 28 27 27 27 27 27 26 26 26 26
26 27 27 27 25 23 25 25 27 27 26 27 24 22 21 21 20 19 20 21 20 20 20 19 20 22 24 25 26 27 27 26 26 26 26 26 26 26 26 26 26 26 26 26
30 29 30 28 27 26 24 24 23 24 23 21 18 16 15 14 13 14 14 14 14 13 14 15 16 18 19 21 22 23 23 24 24 24 24 24 24 25 25 25 25 25 26 27
32 32 31 29 28 27 26 24 22 21 20 18 15 12 11 10 10 10 11 12 12 11 11 11 12 13 15 17 18 19 19 20 21 22 22 22 23 23 23 24 24 25 26 26
34 33 31 29 28 28 27 25 22 19 17 16 13 12 11 11 11 11 11 11 13 13 12 12 13 14 15 16 16 17 17 18 19 20 21 21 22 22 22 23 24 24 25 26
33 33 33 32 31 29 27 25 23 21 19 16 15 13 11 10 9 10 10 11 10 10 10 10 10 10 11 12 13 15 16 17 17 18 19 19 20 20 21 22 23 24 24 25
37 37 35 33 31 29 28 26 24 22 21 20 18 15 14 13 12 12 11 9 8 8 8 7 8 9 10 11 12 13 14 15 16 16 17 18 19 19 20 21 22 22 23 25
42 39 38 36 34 32 30 27 25 24 22 21 19 17 15 14 13 12 11 10 9 7 7 8 8 8 9 10 11 12 12 13 14 15 15 16 17 17 18 19 20 21 23 24
41 41 39 38 35 32 30 27 25 25 24 23 21 19 17 16 14 13 11 10 9 8 8 8 8 7 8 9 9 9 9 10 11 11 12 13 14 16 17 17 18 20 20 20
Wind_Direction
302 298 299 297 293 290 281 283 294 317 295 302 306 307 307 305 305 308 313 316 313 287 276 271 270 274 284 294 303 312 321 328 329 329 340 344 349 355 330 313 305 277 265 250
307 308 308 303 291 279 279 278 285 287 292 296 300 302 305 301 302 300 304 308 308 303 296 298 277 269 275 286 297 308 317 325 330 330 330 340 345 348 5 4 348 327 273 251
297 312 312 309 306 276 294 291 285 284 291 301 301 302 305 305 300 296 296 297 298 294 292 293 291 283 274 282 293 304 313 321 325 326 319 327 344 353 1 10 31 34 33 254
296 309 304 297 303 287 283 289 276 289 290 293 295 296 303 298 296 297 293 293 290 287 285 283 283 279 279 283 291 299 308 316 320 319 307 313 336 352 356 8 11 13 33 42
292 294 297 300 293 298 286 300 283 275 286 295 300 299 301 296 291 292 294 292 289 285 280 277 275 275 276 280 286 294 303 314 324 328 309 303 321 334 345 354 8 36 41 50
288 287 288 294 297 294 294 293 281 280 293 298 297 297 296 294 292 292 290 289 289 284 279 273 271 270 272 275 279 285 292 300 310 313 306 303 311 318 325 327 339 357 22 27
274 282 286 288 286 287 289 281 287 291 293 292 289 289 292 289 288 287 285 285 285 280 275 272 269 268 269 270 272 275 279 283 288 292 291 295 296 303 316 327 329 334 346 339
274 275 285 281 288 278 281 287 292 291 291 289 286 288 289 286 285 284 279 278 278 275 271 269 266 268 270 269 268 268 270 271 272 274 276 278 278 286 295 302 309 314 327 335
266 272 279 282 283 284 286 286 288 288 287 287 284 285 286 288 284 282 278 274 272 270 268 266 263 264 267 270 266 264 264 264 264 264 264 264 264 266 271 273 277 281 284 287
280 277 277 281 281 283 284 285 285 283 283 284 281 281 282 282 282 278 277 274 270 265 264 264 261 259 261 264 263 261 261 261 260 259 259 259 259 261 263 266 268 271 274 275
276 279 282 280 281 283 283 284 284 282 281 280 277 277 280 282 281 276 275 274 269 264 262 261 259 257 257 258 257 258 258 258 257 257 256 257 258 260 262 265 267 268 270 270
278 282 280 285 286 286 284 283 283 282 280 277 276 276 278 278 278 276 273 272 268 265 261 259 257 255 254 253 252 253 254 255 253 254 254 255 256 260 262 263 266 268 268 269
277 283 284 285 287 287 286 285 284 282 280 278 277 277 277 275 275 276 272 269 266 264 260 258 255 253 253 250 248 249 250 251 251 250 251 253 255 257 259 264 267 268 267 266
282 284 284 284 286 288 287 286 284 282 281 279 277 276 276 275 274 273 272 268 265 264 260 257 254 253 253 249 245 245 247 247 249 249 250 251 253 255 258 261 264 267 268 269
281 282 285 288 288 288 288 288 286 284 282 279 278 276 275 275 273 272 271 268 266 262 261 256 252 251 249 247 244 243 244 246 248 249 250 250 252 254 257 260 264 266 266 267
286 288 289 290 291 291 291 289 287 286 283 280 278 276 275 272 272 272 270 268 266 265 259 255 252 249 247 246 244 243 243 244 246 248 249 250 251 253 256 259 262 264 265 265
289 291 293 294 296 297 296 294 293 290 288 283 279 277 274 272 271 269 268 266 267 268 262 254 251 248 245 245 244 242 242 243 244 246 247 248 250 253 255 258 261 264 265 265
288 290 294 298 300 302 300 300 299 297 294 291 285 279 274 269 267 267 267 267 269 270 265 260 250 247 244 243 240 241 241 241 242 244 245 248 251 252 254 258 262 265 265 265
289 290 298 304 305 298 303 303 306 301 302 299 291 283 277 271 267 266 263 267 268 268 267 260 252 243 241 240 237 238 237 238 240 242 245 247 251 252 254 259 263 264 264 266
290 294 296 299 308 308 306 304 311 310 304 304 296 289 283 273 270 267 264 266 268 267 266 260 251 244 239 236 234 236 235 236 238 242 245 248 251 253 256 260 262 264 265 268
293 295 295 293 298 301 302 308 314 317 315 315 303 293 287 278 270 268 264 263 269 270 265 258 249 242 238 233 234 234 234 235 237 241 245 248 251 255 259 261 262 264 266 269
290 292 294 290 289 291 297 300 306 315 317 319 311 301 289 280 272 272 270 269 274 272 267 259 252 243 238 235 235 233 231 233 236 240 244 248 252 256 259 261 264 267 269 272
287 286 287 287 287 286 289 291 292 298 310 314 317 309 294 282 275 275 275 276 276 273 270 264 254 244 237 237 234 232 233 235 239 243 249 253 256 259 260 263 265 269 272 275
285 284 282 282 281 283 283 284 286 284 286 297 298 299 296 290 281 278 282 284 280 277 269 260 247 241 239 238 236 236 237 239 243 248 251 254 257 260 264 266 269 272 275 277
280 281 279 278 276 276 276 277 279 277 279 280 281 289 283 280 278 283 286 283 280 274 270 254 250 248 246 241 239 240 244 248 249 250 253 257 260 264 267 271 273 275 278 280
276 276 274 271 270 272 271 270 271 270 272 274 271 275 279 277 274 277 277 276 273 269 265 261 259 250 244 241 241 246 248 248 250 252 256 260 264 268 270 273 277 280 282 283
275 272 269 266 264 264 263 260 264 267 265 267 264 263 269 268 268 270 267 265 260 261 260 258 254 247 246 245 247 250 251 254 255 256 260 264 270 275 278 281 283 285 287 289